Weather History for Baker, OR

Change the Weather History Date:

Monday, February 4, 2013

  Actual Average Record
Temperature  
Mean Temperature 31 °F 27 °F  
Max Temperature 33 °F 37 °F 56 °F (1963)
Min Temperature 28 °F 18 °F -25 °F (1985)
Degree Days  
Heating Degree Days 34 38  
Month to date heating degree days 138 152  
Since 1 July heating degree days 4591 4675  
Cooling Degree Days 0 0  
Month to date cooling degree days 0 0  
Year to date cooling degree days 0 0  
Moisture  
Dew Point 28 °F    
Average Humidity 85    
Maximum Humidity 92    
Minimum Humidity 78    
Precipitation  
Precipitation 0.00 in 0.02 in 0.08 in (1996)
Month to date precipitation 0.00 0.08  
Year to date precipitation 0.84 0.88  
Sea Level Pressure  
Sea Level Pressure 30.17 in    
Wind  
Wind Speed 2 mph (SE)    
Max Wind Speed 8 mph    
Max Gust Speed 10 mph    
Visibility 10 miles    
Events      
T = Trace of Precipitation, MM = Missing Value Source: NWS Daily Summary

Daily Weather History Graph

Daily Weather History Graph

Search for Another Location

Airport:

Trip Planner

Search our weather history database for the weather conditions in past years. The results will help you decide how hot, cold, wet, or windy it might be!

Date:

Astronomy

Feb. 04, 2013 Rise Set
Actual Time 7:06 AM PST 5:04 PM PST
Civil Twilight 6:35 AM PST 5:35 PM PST
Nautical Twilight 6:00 AM PST 6:10 PM PST
Astronomical Twilight 5:26 AM PST 6:44 PM PST
Moon 1:50 AM PST (2/4) 11:28 AM PST (2/4)
Length of Visible Light 10h 59m
Length of Day
9h 57m
Last Quarter, 36% of the Moon is Illuminated
Feb 4
Last Quarter
Feb 9
New
Feb 17
First Quarter
Feb 25
Full
Mar 4
Last Quarter

Hourly Weather History & Observations

Time (PST) Temp. Windchill Dew Point Humidity Pressure Visibility Wind Dir Wind Speed Gust Speed Precip Events Conditions
12:53 AM 30.0 °F 25.2 °F 27.0 °F 88% 30.25 in 10.0 mi ESE 4.6 mph - N/A   Overcast
2:53 AM 30.2 °F - 26.6 °F 86% 30.18 in 10.0 mi Calm Calm - N/A   Overcast
3:14 AM 30.2 °F - 26.6 °F 86% 30.18 in 10.0 mi Calm Calm - N/A   Overcast
3:34 AM 30.2 °F - 26.6 °F 86% 30.17 in 10.0 mi Calm Calm - N/A   Overcast
3:53 AM 30.0 °F - 27.0 °F 88% 30.24 in 10.0 mi Calm Calm - N/A   Overcast
4:53 AM 30.0 °F - 28.0 °F 92% 30.25 in 10.0 mi Calm Calm - N/A   Overcast
5:53 AM 30.0 °F - 27.0 °F 88% 30.24 in 10.0 mi Calm Calm - N/A   Overcast
6:53 AM 30.0 °F - 27.0 °F 88% 30.23 in 10.0 mi Calm Calm - N/A   Overcast
7:15 AM 30.2 °F - 28.4 °F 93% 30.17 in 10.0 mi Calm Calm - N/A   Overcast
7:53 AM 30.0 °F 25.2 °F 28.0 °F 92% 30.25 in 9.0 mi SSE 4.6 mph - N/A   Overcast
8:53 AM 30.9 °F 27.5 °F 27.0 °F 85% 30.25 in 10.0 mi South 3.5 mph - N/A   Overcast
9:53 AM 30.0 °F - 27.0 °F 88% 30.27 in 10.0 mi Calm Calm - N/A   Overcast
10:53 AM 32.0 °F 28.7 °F 27.0 °F 82% 30.27 in 10.0 mi East 3.5 mph - N/A   Overcast
11:04 AM 32.0 °F 27.5 °F 26.6 °F 80% 30.19 in 10.0 mi SE 4.6 mph - N/A   Overcast
11:53 AM 32.0 °F 28.7 °F 27.0 °F 82% 30.24 in 10.0 mi East 3.5 mph - N/A   Overcast
12:53 PM 32.0 °F - 28.0 °F 85% 30.22 in 10.0 mi Calm Calm - N/A   Overcast
1:53 PM 33.1 °F - 28.0 °F 82% 30.20 in 10.0 mi Calm Calm - N/A   Overcast
2:53 PM 33.1 °F - 28.0 °F 82% 30.19 in 10.0 mi Calm Calm - N/A   Overcast
3:53 PM 32.0 °F 28.7 °F 28.4 °F 87% 30.10 in 10.0 mi WSW 3.5 mph - N/A   Overcast
4:53 PM 32.0 °F 28.7 °F 28.0 °F 85% 30.17 in 10.0 mi West 3.5 mph - N/A   Overcast
5:41 PM 32.0 °F 28.7 °F 28.4 °F 87% 30.08 in 10.0 mi ESE 3.5 mph - N/A   Overcast
5:53 PM 32.0 °F 27.5 °F 28.0 °F 85% 30.16 in 10.0 mi East 4.6 mph - N/A   Overcast
6:53 PM 32.0 °F - 28.9 °F 88% 30.16 in 10.0 mi Calm Calm - N/A   Overcast
7:53 PM 30.9 °F - 28.0 °F 89% 30.15 in 10.0 mi Calm Calm - N/A   Overcast
8:21 PM 30.2 °F - 28.4 °F 93% 30.08 in 9.0 mi Calm Calm - N/A   Overcast
8:53 PM 30.9 °F - 28.0 °F 89% 30.14 in 9.0 mi Calm Calm - N/A   Mostly Cloudy
9:31 PM 30.2 °F 26.7 °F 28.4 °F 93% 30.06 in 8.0 mi ESE 3.5 mph - N/A   Overcast
9:53 PM 30.9 °F 27.5 °F 28.9 °F 92% 30.14 in 10.0 mi South 3.5 mph - N/A   Mostly Cloudy
10:03 PM 30.2 °F - 28.4 °F 93% 30.06 in 10.0 mi Calm Calm - N/A   Mostly Cloudy
10:19 PM 30.2 °F 26.7 °F 26.6 °F 86% 30.05 in 9.0 mi East 3.5 mph - N/A   Scattered Clouds
10:53 PM 30.0 °F - 27.0 °F 88% 30.12 in 9.0 mi Calm Calm - N/A   Clear
11:53 PM 28.0 °F 24.2 °F 26.1 °F 92% 30.11 in 9.0 mi South 3.5 mph - N/A   Clear